When you browse on this site, cookies collect data to enhance your experience and personalize the content and advertising you see.
Visit our Privacy Policy to learn more. By continuing to use the site, you agree to this use of cookies and data.
  • In Romania
  • List of Countries
  • For 7 days
  • Water Temperature
  • Weather Map
  • Weather Widgets
  • user-avatar
    Login

    Hourly Weather Kerns

    Today, 20 October, Sunday

    Time Temperature Precipitation Wind Pressure Humidity
    00:00 +22°C° 0 mm 1 mps 761 mmHg 95%
    01:00 +21°C° 0 mm 1 mps 760 mmHg 96%
    02:00 +21°C° 0 mm 1 mps 760 mmHg 95%
    03:00 +21°C° 0 mm 1 mps 760 mmHg 95%
    04:00 +21°C° 0 mm 1 mps 760 mmHg 93%
    05:00 +22°C° 0 mm 1 mps 760 mmHg 85%
    06:00 +23°C° 0 mm 1 mps 761 mmHg 78%
    07:00 +24°C° 0 mm 1 mps 761 mmHg 70%
    08:00 +28°C° 0 mm 1 mps 761 mmHg 53%
    09:00 +32°C° 0 mm 2 mps 761 mmHg 36%
    10:00 +36°C° 0 mm 2 mps 761 mmHg 23%
    11:00 +37°C° 0 mm 2 mps 760 mmHg 23%
    12:00 +37°C° 0 mm 3 mps 759 mmHg 23%
    13:00 +38°C° 0 mm 3 mps 759 mmHg 23%
    14:00 +37°C° 0 mm 3 mps 758 mmHg 27%
    15:00 +35°C° 0 mm 3 mps 758 mmHg 32%
    16:00 +34°C° 0 mm 2 mps 757 mmHg 39%
    17:00 +30°C° 0 mm 2 mps 758 mmHg 51%
    18:00 +27°C° 0 mm 1 mps 758 mmHg 64%
    19:00 +24°C° 0 mm 1 mps 759 mmHg 77%
    20:00 +23°C° 0 mm 1 mps 759 mmHg 81%
    21:00 +22°C° 0 mm 1 mps 760 mmHg 85%
    22:00 +21°C° 0 mm 2 mps 761 mmHg 89%
    23:00 +20°C° 0 mm 2 mps 760 mmHg 90%

    Tomorrow, 21 October, Monday

    Time Temperature Precipitation Wind Pressure Humidity
    00:00 +20°C° 0 mm 2 mps 760 mmHg 91%
    01:00 +20°C° 0 mm 3 mps 760 mmHg 92%
    02:00 +20°C° 0 mm 3 mps 760 mmHg 92%
    03:00 +20°C° 0 mm 3 mps 760 mmHg 93%
    04:00 +20°C° 0 mm 3 mps 760 mmHg 93%
    05:00 +22°C° 0 mm 3 mps 760 mmHg 88%
    06:00 +24°C° 0 mm 3 mps 760 mmHg 82%
    07:00 +25°C° 0 mm 3 mps 760 mmHg 76%
    08:00 +27°C° 0 mm 4 mps 761 mmHg 68%
    09:00 +29°C° 0 mm 4 mps 761 mmHg 60%
    10:00 +32°C° 0 mm 5 mps 761 mmHg 52%
    11:00 +33°C° 0 mm 5 mps 760 mmHg 49%
    12:00 +33°C° 0 mm 5 mps 760 mmHg 47%
    13:00 +34°C° 0 mm 6 mps 759 mmHg 44%
    14:00 +33°C° 0 mm 6 mps 759 mmHg 47%
    15:00 +32°C° 0 mm 6 mps 759 mmHg 49%
    16:00 +32°C° 0 mm 5 mps 759 mmHg 51%
    17:00 +29°C° 0.1 mm 5 mps 760 mmHg 62%
    18:00 +27°C° 0.1 mm 5 mps 760 mmHg 73%
    19:00 +25°C° 0.1 mm 4 mps 760 mmHg 83%
    20:00 +23°C° 0.3 mm 4 mps 761 mmHg 87%
    21:00 +22°C° 0.3 mm 4 mps 761 mmHg 91%
    22:00 +22°C° 0.3 mm 4 mps 762 mmHg 94%
    23:00 +22°C° 0.6 mm 4 mps 761 mmHg 94%

    Day after tomorrow, 22 October, Tuesday

    Time Temperature Precipitation Wind Pressure Humidity
    00:00 +22°C° 0.6 mm 4 mps 761 mmHg 95%
    01:00 +22°C° 0.6 mm 4 mps 760 mmHg 95%
    02:00 +22°C° 0.9 mm 4 mps 760 mmHg 95%
    03:00 +22°C° 0.9 mm 4 mps 760 mmHg 95%
    04:00 +22°C° 0.9 mm 5 mps 760 mmHg 94%
    05:00 +22°C° 0.8 mm 5 mps 760 mmHg 92%
    06:00 +23°C° 0.8 mm 6 mps 761 mmHg 89%
    07:00 +23°C° 0.8 mm 6 mps 761 mmHg 86%
    08:00 +26°C° 0.4 mm 6 mps 761 mmHg 80%
    09:00 +27°C° 0.4 mm 7 mps 761 mmHg 73%
    10:00 +28°C° 0.4 mm 7 mps 762 mmHg 66%
    11:00 +29°C° 0.2 mm 7 mps 761 mmHg 63%
    12:00 +30°C° 0.2 mm 7 mps 760 mmHg 59%
    13:00 +30°C° 0.2 mm 7 mps 760 mmHg 56%
    14:00 +30°C° 0.2 mm 7 mps 760 mmHg 58%
    15:00 +29°C° 0.2 mm 7 mps 760 mmHg 60%
    16:00 +29°C° 0.2 mm 7 mps 759 mmHg 63%
    17:00 +27°C° 0.3 mm 7 mps 760 mmHg 70%
    18:00 +26°C° 0.3 mm 6 mps 760 mmHg 78%
    19:00 +23°C° 0.3 mm 6 mps 761 mmHg 86%
    20:00 +23°C° 0.4 mm 6 mps 761 mmHg 87%
    21:00 +23°C° 0.4 mm 6 mps 761 mmHg 87%
    22:00 +22°C° 0.4 mm 6 mps 762 mmHg 88%
    23:00 +22°C° 0.2 mm 6 mps 761 mmHg 89%

    23 October, Wednesday

    Time Temperature Precipitation Wind Pressure Humidity
    00:00 +22°C° 0.2 mm 6 mps 761 mmHg 90%
    01:00 +22°C° 0.2 mm 6 mps 760 mmHg 90%
    02:00 +21°C° 0.1 mm 6 mps 760 mmHg 91%
    03:00 +21°C° 0.1 mm 6 mps 760 mmHg 91%
    04:00 +20°C° 0.1 mm 6 mps 760 mmHg 92%
    05:00 +21°C° 0 mm 6 mps 761 mmHg 89%
    06:00 +22°C° 0 mm 6 mps 761 mmHg 85%
    07:00 +22°C° 0 mm 6 mps 761 mmHg 82%
    08:00 +24°C° 0 mm 6 mps 761 mmHg 72%
    09:00 +27°C° 0 mm 7 mps 761 mmHg 62%
    10:00 +30°C° 0 mm 7 mps 761 mmHg 52%
    11:00 +30°C° 0 mm 7 mps 761 mmHg 49%
    12:00 +32°C° 0 mm 7 mps 760 mmHg 47%
    13:00 +32°C° 0 mm 7 mps 760 mmHg 45%
    14:00 +32°C° 0 mm 6 mps 759 mmHg 47%
    15:00 +30°C° 0 mm 6 mps 759 mmHg 50%
    16:00 +29°C° 0 mm 6 mps 759 mmHg 52%
    17:00 +28°C° 0 mm 6 mps 759 mmHg 61%
    18:00 +26°C° 0 mm 5 mps 760 mmHg 70%
    19:00 +23°C° 0 mm 5 mps 760 mmHg 79%
    20:00 +22°C° 0.1 mm 5 mps 760 mmHg 84%
    21:00 +22°C° 0.1 mm 5 mps 761 mmHg 89%
    22:00 +21°C° 0.1 mm 5 mps 761 mmHg 94%
    23:00 +21°C° 0.2 mm 5 mps 761 mmHg 94%

    24 October, Thursday

    Time Temperature Precipitation Wind Pressure Humidity
    00:00 +22°C° 0.2 mm 5 mps 760 mmHg 95%
    01:00 +22°C° 0.2 mm 5 mps 760 mmHg 95%
    02:00 +22°C° 0.2 mm 5 mps 759 mmHg 95%
    03:00 +21°C° 0.2 mm 4 mps 759 mmHg 95%
    04:00 +21°C° 0.2 mm 4 mps 759 mmHg 95%
    05:00 +22°C° 0.2 mm 4 mps 759 mmHg 93%
    06:00 +23°C° 0.2 mm 5 mps 760 mmHg 90%
    07:00 +23°C° 0.2 mm 5 mps 760 mmHg 88%
    08:00 +26°C° 0.1 mm 5 mps 760 mmHg 78%
    09:00 +28°C° 0.1 mm 5 mps 760 mmHg 67%
    10:00 +30°C° 0.1 mm 5 mps 760 mmHg 57%
    11:00 +32°C° 0.1 mm 5 mps 760 mmHg 55%
    12:00 +32°C° 0.1 mm 5 mps 759 mmHg 53%
    13:00 +33°C° 0.1 mm 6 mps 759 mmHg 51%
    14:00 +32°C° 0 mm 5 mps 759 mmHg 54%
    15:00 +30°C° 0 mm 5 mps 758 mmHg 56%
    16:00 +30°C° 0 mm 5 mps 758 mmHg 59%
    17:00 +28°C° 0 mm 5 mps 758 mmHg 68%
    18:00 +26°C° 0 mm 5 mps 759 mmHg 77%
    19:00 +23°C° 0 mm 4 mps 759 mmHg 87%
    20:00 +23°C° 0 mm 4 mps 760 mmHg 89%
    21:00 +23°C° 0 mm 4 mps 760 mmHg 92%
    22:00 +22°C° 0 mm 4 mps 760 mmHg 94%
    23:00 +22°C° 0 mm 4 mps 760 mmHg 95%

    25 October, Friday

    Time Temperature Precipitation Wind Pressure Humidity
    00:00 +22°C° 0 mm 4 mps 759 mmHg 95%
    01:00 +22°C° 0 mm 4 mps 759 mmHg 95%
    02:00 +22°C° 0 mm 4 mps 759 mmHg 95%
    03:00 +22°C° 0 mm 3 mps 759 mmHg 95%
    04:00 +22°C° 0 mm 3 mps 758 mmHg 95%
    05:00 +22°C° 0 mm 3 mps 759 mmHg 91%
    06:00 +24°C° 0 mm 3 mps 759 mmHg 87%
    07:00 +25°C° 0 mm 3 mps 760 mmHg 83%
    08:00 +27°C° 0 mm 4 mps 760 mmHg 71%
    09:00 +30°C° 0 mm 4 mps 760 mmHg 59%
    10:00 +33°C° 0 mm 4 mps 760 mmHg 47%
    11:00 +34°C° 0 mm 5 mps 759 mmHg 47%
    12:00 +34°C° 0 mm 5 mps 758 mmHg 47%
    13:00 +35°C° 0 mm 5 mps 758 mmHg 46%
    14:00 +34°C° 0 mm 5 mps 757 mmHg 51%
    15:00 +33°C° 0 mm 5 mps 757 mmHg 56%
    16:00 +30°C° 0 mm 5 mps 757 mmHg 60%
    17:00 +29°C° 0 mm 5 mps 757 mmHg 68%
    18:00 +27°C° 0 mm 5 mps 757 mmHg 75%
    19:00 +25°C° 0 mm 5 mps 758 mmHg 83%
    20:00 +23°C° 0 mm 4 mps 758 mmHg 86%
    21:00 +23°C° 0 mm 4 mps 759 mmHg 90%
    22:00 +22°C° 0 mm 3 mps 759 mmHg 94%
    23:00 +22°C° 0 mm 3 mps 759 mmHg 95%
    Show more